Regional Weather Roundup
Issued by NWS Kansas City/Pleasant Hill, MO

Home | Current Version | Previous Version | Graphics & Text | Print | Product List | Glossary Off
Versions: 1 2 3 4 5 6 7 8 9 10 11 12 13 14 15 16 17 18 19 20 21 22 23 24 25 26 27 28 29 30 31 32 33 34 35 36 37 38 39 40 41 42 43 44 45 46 47 48 49 50

000
ASUS43 KEAX 311610
RWREAX

WEATHER ROUNDUP FOR EASTERN KANSAS AND NORTHWEST MISSOURI
NATIONAL WEATHER SERVICE KANSAS CITY/PLEASANT HILL MO
1100 AM CDT MON AUG 31 2015

KSZ040-057-103>105-MOZ028-029-037-043-311700-
...KANSAS CITY METROPOLITAN AREA...

CITY           SKY/WX    TMP DP  RH WIND       PRES   REMARKS
K.C. INTL      MOSUNNY   82  72  71 SW10      30.00S
K.C. DOWNTOWN  SUNNY     84  72  67 S7        29.99S
LEES SUMMIT    SUNNY     81  69  67 S8        30.02R
OLATHE - IXD   SUNNY     80  71  74 S8        30.02S
OLATHE - OJC   SUNNY     79  70  74 SW7       30.01R
LAWRENCE       SUNNY     82  71  69 S6        30.00R

$$

MOZ001>008-011>017-020>025-030>033-038>040-044>046-053-054-311700-
...NORTHERN AND CENTRAL MISSOURI...

CITY           SKY/WX    TMP DP  RH WIND       PRES   REMARKS
ST. JOSEPH     SUNNY     81  74  79 VRB5      29.99S
MOSBY          SUNNY     81  72  74 S3        30.00S
WARRENSBURG    SUNNY     81  68  65 S8        30.02S
WHITEMAN AFB   SUNNY     83  69  62 SW13      30.02R
CLINTON        SUNNY     82  72  69 S9        30.03S
SEDALIA        SUNNY     84  69  60 S10       30.05S
WARSAW         NOT AVBL
CHILLICOTHE      N/A     82  72  71 S7        30.01S
KIRKSVILLE     SUNNY     84  71  65 SE9       30.04S

$$

MOZ041-047>049-056>058-063>065-088>090-097-311700-
...EASTERN AND SOUTHERN MISSOURI...

CITY           SKY/WX    TMP DP  RH WIND       PRES   REMARKS
ST. LOUIS INTL MOSUNNY   84  69  60 S5        30.08S
SPIRIT OF STL  SUNNY     84  72  67 VRB3      30.06R
COLUMBIA       SUNNY     82  71  69 SE8       30.06S
JEFFERSON CITY SUNNY     83  69  62 S6        30.04F
ROLLA          SUNNY     84  70  62 S10       30.07S
OSAGE BEACH    SUNNY     84  70  61 S8        30.07R
SPRINGFIELD    SUNNY     82  69  64 S13       30.07S
BRANSON        MOSUNNY   82  70  65 S6        30.11R
JOPLIN         SUNNY     82  68  62 SW12      30.05R
WEST PLAINS    SUNNY     79  70  74 S3        30.13S

$$

IAZ060-094-KSZ022-034>040-054-083-096-NEZ052-066-093-311700-
...KANSAS...SOUTHEAST NEBRASKA AND IOWA...

CITY           SKY/WX    TMP DP  RH WIND       PRES   REMARKS
TOPEKA         SUNNY     81  72  74 SE6       29.99S
MANHATTAN      SUNNY     83  70  64 SE9       29.97S
EMPORIA        SUNNY     80  70  71 SE10      29.99S
CHANUTE        SUNNY     80  68  66 S7        30.01S
WICHITA        MOSUNNY   80  67  64 S9        29.97S
OMAHA          MOSUNNY   78  71  79 SE10      29.97R
LINCOLN        SUNNY     79  70  74 S13       29.97S
FALLS CITY     SUNNY     81  72  74 S8        29.98S
LAMONI         SUNNY     80  73  79 S7        30.01S
DES MOINES     MOSUNNY   80  71  74 S8        30.00R

$$



USA.gov is the U.S. government's official web portal to all federal, state and local government web resources and services.